sat.trackr.live / text

‹ back to catalog

QIANFAN-79

NORAD 63165 · 2025-046G

PAYLOAD ACTIVE UNKNOWN

§ Identity

Operator
Country
PRC
Launch date
2025-03-11
Launch site
WSC
Launch vehicle
Mass (kg)
RCS (m²)

External: N2YO · Heavens-Above · Gunter

§ Orbital elements

Epoch: 2026-09-22T21:30:02.504448Z

Period
106.59 min
Inclination
88.9644°
Eccentricity
0.0015639
Mean motion
13.51021195 rev/d
Perigee alt
1,056.9 km
Apogee alt
1,080.1 km
Semi-major
7,446.6 km
B*
1.7415e-5
RAAN
290.6013°
Arg perigee
34.1630°
Mean anomaly
326.0524°
Rev number
8,574

§ Raw data

QIANFAN-791 63165U 25046G   26265.89586232  .00000023  00000+0  17415-4 0  99982 63165  88.9644 290.6013 0015639  34.1630 326.0524 13.51021195 85748

JSON: /api/v1/satellites/63165 · /tle

For live sub-satellite position, see the globe view (requires WebGL).

§ Visibility from observer

Set your observer location to see the next 7 days of passes ≥ 10°. The values pass through the URL so the page stays shareable.

No JS? Fill the form by hand. The geolocation button needs JavaScript.